Time,TemperatureF,DewpointF,PressureIn,WindDirection,WindDirectionDegrees,WindSpeedMPH,WindSpeedGustMPH,Humidity,HourlyPrecipIn,Conditions,Clouds,dailyrainin,SoftwareType,DateUTC
2013-03-02 00:00:00,14.7,7.0,29.44,NW,315,0.0,0.0,71,0.00,,,0.00,meteohub,2013-03-02 05:00:00,
2013-03-02 00:05:00,14.5,6.8,29.44,NNW,338,0.0,0.0,71,0.00,,,0.00,meteohub,2013-03-02 05:05:00,
2013-03-02 00:11:00,14.4,6.6,29.41,WNW,293,0.0,0.0,71,0.00,,,0.00,meteohub,2013-03-02 05:11:00,
2013-03-02 00:16:00,14.5,6.8,29.41,North,0,0.0,2.0,71,0.00,,,0.00,meteohub,2013-03-02 05:16:00,
2013-03-02 00:21:00,14.7,7.3,29.41,NW,315,2.0,2.0,72,0.00,,,0.00,meteohub,2013-03-02 05:21:00,
2013-03-02 00:26:00,15.3,7.9,29.41,North,0,2.0,3.0,72,0.00,,,0.00,meteohub,2013-03-02 05:26:00,
2013-03-02 00:31:00,15.3,7.9,29.42,NE,45,0.0,3.0,72,0.00,,,0.00,meteohub,2013-03-02 05:31:00,
2013-03-02 00:36:00,15.1,7.7,29.42,NW,315,0.0,3.0,72,0.00,,,0.00,meteohub,2013-03-02 05:36:00,
2013-03-02 00:41:00,14.7,7.3,29.42,NNE,23,0.0,2.0,72,0.00,,,0.00,meteohub,2013-03-02 05:41:00,
2013-03-02 00:46:00,14.7,7.3,29.42,WNW,293,2.0,2.0,72,0.00,,,0.00,meteohub,2013-03-02 05:46:00,
2013-03-02 00:51:00,14.5,7.2,29.46,WSW,248,2.0,3.0,72,0.00,,,0.00,meteohub,2013-03-02 05:51:00,
2013-03-02 00:56:00,14.5,7.5,29.46,West,270,1.0,3.0,73,0.00,,,0.00,meteohub,2013-03-02 05:56:00,
2013-03-02 01:01:00,14.5,7.5,29.46,NW,315,0.0,2.0,73,0.00,,,0.00,meteohub,2013-03-02 06:01:00,
2013-03-02 01:06:00,14.4,7.3,29.46,WSW,248,0.0,2.0,73,0.00,,,0.00,meteohub,2013-03-02 06:06:00,
2013-03-02 01:11:00,14.4,7.3,29.48,North,0,0.0,2.0,73,0.00,,,0.00,meteohub,2013-03-02 06:11:00,
2013-03-02 01:16:00,14.2,7.2,29.48,NE,45,0.0,2.0,73,0.00,,,0.00,meteohub,2013-03-02 06:16:00,
2013-03-02 01:21:00,14.0,7.0,29.48,SW,225,0.0,2.0,73,0.00,,,0.00,meteohub,2013-03-02 06:21:00,
2013-03-02 01:26:00,13.8,6.8,29.48,NW,315,0.0,0.0,73,0.00,,,0.00,meteohub,2013-03-02 06:26:00,
2013-03-02 01:31:00,13.5,6.4,29.50,NW,315,0.0,0.0,73,0.00,,,0.00,meteohub,2013-03-02 06:31:00,
2013-03-02 01:36:00,13.3,6.3,29.50,West,270,0.0,0.0,73,0.00,,,0.00,meteohub,2013-03-02 06:36:00,
2013-03-02 01:41:00,12.9,5.9,29.50,NW,315,0.0,0.0,73,0.00,,,0.00,meteohub,2013-03-02 06:41:00,
2013-03-02 01:46:00,12.9,6.3,29.50,NW,315,2.0,0.0,74,0.00,,,0.00,meteohub,2013-03-02 06:46:00,
2013-03-02 01:51:00,13.3,6.6,29.49,WNW,293,0.0,2.0,74,0.00,,,0.00,meteohub,2013-03-02 06:51:00,
2013-03-02 01:56:00,13.5,6.8,29.49,North,0,2.0,2.0,74,0.00,,,0.00,meteohub,2013-03-02 06:56:00,
2013-03-02 02:01:00,13.6,7.2,29.49,North,0,0.0,2.0,75,0.00,,,0.00,meteohub,2013-03-02 07:01:00,
2013-03-02 02:06:00,13.3,6.6,29.49,NNE,23,2.0,2.0,74,0.00,,,0.00,meteohub,2013-03-02 07:06:00,
2013-03-02 02:11:00,13.1,6.4,29.46,North,0,0.0,2.0,74,0.00,,,0.00,meteohub,2013-03-02 07:11:00,
2013-03-02 02:16:00,13.1,6.4,29.46,NNW,338,0.0,2.0,74,0.00,,,0.00,meteohub,2013-03-02 07:16:00,
2013-03-02 02:21:00,13.3,6.8,29.46,North,0,0.0,2.0,75,0.00,,,0.00,meteohub,2013-03-02 07:21:00,
2013-03-02 02:26:00,13.3,6.8,29.46,WNW,293,2.0,0.0,75,0.00,,,0.00,meteohub,2013-03-02 07:26:00,
2013-03-02 02:31:00,13.5,7.3,29.44,NNW,338,2.0,2.0,76,0.00,,,0.00,meteohub,2013-03-02 07:31:00,
2013-03-02 02:36:00,13.6,7.5,29.44,NW,315,0.0,2.0,76,0.00,,,0.00,meteohub,2013-03-02 07:36:00,
2013-03-02 02:41:00,14.0,7.9,29.44,North,0,2.0,2.0,76,0.00,,,0.00,meteohub,2013-03-02 07:41:00,
2013-03-02 02:46:00,14.4,8.2,29.44,NW,315,2.0,2.0,76,0.00,,,0.00,meteohub,2013-03-02 07:46:00,
2013-03-02 02:51:00,14.7,8.6,29.42,North,0,1.0,2.0,76,0.00,,,0.00,meteohub,2013-03-02 07:51:00,
2013-03-02 02:56:00,14.9,8.8,29.42,NW,315,2.0,3.0,76,0.00,,,0.00,meteohub,2013-03-02 07:56:00,
2013-03-02 03:01:00,15.1,8.6,29.42,North,0,0.0,3.0,75,0.00,,,0.00,meteohub,2013-03-02 08:01:00,
2013-03-02 03:06:00,15.1,8.6,29.42,WNW,293,0.0,3.0,75,0.00,,,0.00,meteohub,2013-03-02 08:06:00,
2013-03-02 03:11:00,15.3,8.8,29.40,North,0,0.0,3.0,75,0.00,,,0.00,meteohub,2013-03-02 08:11:00,
2013-03-02 03:16:00,15.4,9.0,29.40,North,0,2.0,2.0,75,0.00,,,0.00,meteohub,2013-03-02 08:16:00,
2013-03-02 03:21:00,15.8,9.3,29.40,NNE,23,2.0,3.0,75,0.00,,,0.00,meteohub,2013-03-02 08:21:00,
2013-03-02 03:26:00,15.8,9.0,29.40,SSE,158,0.0,3.0,74,0.00,,,0.00,meteohub,2013-03-02 08:26:00,
2013-03-02 03:31:00,16.0,9.1,29.42,North,0,3.0,3.0,74,0.00,,,0.00,meteohub,2013-03-02 08:31:00,
2013-03-02 03:36:00,16.0,9.1,29.42,SSW,203,2.0,4.0,74,0.00,,,0.00,meteohub,2013-03-02 08:36:00,
2013-03-02 03:42:00,16.0,8.8,29.42,NE,45,0.0,4.0,73,0.00,,,0.00,meteohub,2013-03-02 08:42:00,
2013-03-02 03:47:00,16.0,8.8,29.42,NNW,338,0.0,4.0,73,0.00,,,0.00,meteohub,2013-03-02 08:47:00,
2013-03-02 03:52:00,16.0,8.8,29.45,North,0,3.0,3.0,73,0.00,,,0.00,meteohub,2013-03-02 08:52:00,
2013-03-02 03:57:00,16.0,8.6,29.45,North,0,4.0,4.0,72,0.00,,,0.00,meteohub,2013-03-02 08:57:00,
2013-03-02 04:02:00,15.8,8.4,29.45,WNW,293,0.0,4.0,72,0.00,,,0.00,meteohub,2013-03-02 09:02:00,
2013-03-02 04:07:00,15.8,8.4,29.45,North,0,2.0,8.0,72,0.00,,,0.00,meteohub,2013-03-02 09:07:00,
2013-03-02 04:12:00,15.6,8.2,29.47,NNE,23,3.0,8.0,72,0.00,,,0.00,meteohub,2013-03-02 09:12:00,
2013-03-02 04:17:00,15.4,7.7,29.47,NNE,23,2.0,8.0,71,0.00,,,0.00,meteohub,2013-03-02 09:17:00,
2013-03-02 04:22:00,15.4,7.7,29.47,NNE,23,4.0,4.0,71,0.00,,,0.00,meteohub,2013-03-02 09:22:00,
2013-03-02 04:27:00,15.4,7.7,29.47,NE,45,3.0,5.0,71,0.00,,,0.00,meteohub,2013-03-02 09:27:00,
2013-03-02 04:32:00,15.3,7.5,29.48,NNE,23,2.0,5.0,71,0.00,,,0.00,meteohub,2013-03-02 09:32:00,
2013-03-02 04:37:00,15.3,7.5,29.48,NNE,23,0.0,6.0,71,0.00,,,0.00,meteohub,2013-03-02 09:37:00,
2013-03-02 04:42:00,15.1,7.3,29.48,North,0,4.0,6.0,71,0.00,,,0.00,meteohub,2013-03-02 09:42:00,
2013-03-02 04:47:00,14.9,7.2,29.48,NNE,23,3.0,6.0,71,0.00,,,0.00,meteohub,2013-03-02 09:47:00,
2013-03-02 04:52:00,14.9,7.5,29.47,NNE,23,3.0,5.0,72,0.00,,,0.00,meteohub,2013-03-02 09:52:00,
2013-03-02 04:57:00,14.7,7.3,29.47,East,90,2.0,4.0,72,0.00,,,0.00,meteohub,2013-03-02 09:57:00,
2013-03-02 05:02:00,14.7,7.3,29.47,North,0,0.0,4.0,72,0.00,,,0.00,meteohub,2013-03-02 10:02:00,
2013-03-02 05:07:00,14.7,7.3,29.47,North,0,0.0,4.0,72,0.00,,,0.00,meteohub,2013-03-02 10:07:00,
2013-03-02 05:12:00,14.5,7.2,29.44,North,0,0.0,2.0,72,0.00,,,0.00,meteohub,2013-03-02 10:12:00,
2013-03-02 05:17:00,14.4,7.0,29.44,North,0,0.0,3.0,72,0.00,,,0.00,meteohub,2013-03-02 10:17:00,
2013-03-02 05:22:00,14.2,6.8,29.44,North,0,0.0,3.0,72,0.00,,,0.00,meteohub,2013-03-02 10:22:00,
2013-03-02 05:27:00,14.0,6.6,29.44,NNE,23,0.0,3.0,72,0.00,,,0.00,meteohub,2013-03-02 10:27:00,
2013-03-02 05:32:00,14.0,6.6,29.42,NE,45,1.0,3.0,72,0.00,,,0.00,meteohub,2013-03-02 10:32:00,
2013-03-02 05:38:00,14.0,6.6,29.42,NW,315,0.0,3.0,72,0.00,,,0.00,meteohub,2013-03-02 10:38:00,
2013-03-02 05:43:00,13.6,6.6,29.42,North,0,2.0,4.0,73,0.00,,,0.00,meteohub,2013-03-02 10:43:00,
2013-03-02 05:48:00,13.6,6.6,29.42,NNE,23,4.0,4.0,73,0.00,,,0.00,meteohub,2013-03-02 10:48:00,
2013-03-02 05:53:00,13.5,6.4,29.41,North,0,3.0,4.0,73,0.00,,,0.00,meteohub,2013-03-02 10:53:00,
2013-03-02 05:58:00,13.3,6.3,29.41,NNE,23,8.0,8.0,73,0.00,,,0.00,meteohub,2013-03-02 10:58:00,
2013-03-02 06:03:00,13.3,6.3,29.41,NNE,23,7.0,7.0,73,0.00,,,0.00,meteohub,2013-03-02 11:03:00,
2013-03-02 06:09:00,13.3,6.3,29.41,NNE,23,5.0,11.0,73,0.00,,,0.00,meteohub,2013-03-02 11:09:00,
2013-03-02 06:14:00,13.1,6.1,29.42,NNE,23,9.0,11.0,73,0.00,,,0.00,meteohub,2013-03-02 11:14:00,
2013-03-02 06:19:00,12.9,5.9,29.42,NNE,23,8.0,10.0,73,0.00,,,0.00,meteohub,2013-03-02 11:19:00,
2013-03-02 06:24:00,12.9,5.9,29.42,NNE,23,5.0,9.0,73,0.00,,,0.00,meteohub,2013-03-02 11:24:00,
2013-03-02 06:29:00,12.7,5.7,29.42,NNE,23,6.0,10.0,73,0.00,,,0.00,meteohub,2013-03-02 11:29:00,
2013-03-02 06:34:00,12.7,5.7,29.43,NE,45,8.0,10.0,73,0.00,,,0.00,meteohub,2013-03-02 11:34:00,
2013-03-02 06:39:00,12.7,6.1,29.43,North,0,2.0,10.0,74,0.00,,,0.00,meteohub,2013-03-02 11:39:00,
2013-03-02 06:44:00,12.7,6.1,29.43,North,0,5.0,9.0,74,0.00,,,0.00,meteohub,2013-03-02 11:44:00,
2013-03-02 06:49:00,12.6,5.9,29.43,NNE,23,3.0,9.0,74,0.00,,,0.00,meteohub,2013-03-02 11:49:00,
2013-03-02 06:54:00,12.6,5.9,29.44,NE,45,2.0,6.0,74,0.00,,,0.00,meteohub,2013-03-02 11:54:00,
2013-03-02 06:59:00,12.6,5.9,29.44,NNE,23,2.0,5.0,74,0.00,,,0.00,meteohub,2013-03-02 11:59:00,
2013-03-02 07:04:00,12.6,5.9,29.44,North,0,0.0,4.0,74,0.00,,,0.00,meteohub,2013-03-02 12:04:00,
2013-03-02 07:09:00,12.6,5.9,29.44,North,0,0.0,4.0,74,0.00,,,0.00,meteohub,2013-03-02 12:09:00,
2013-03-02 07:14:00,12.6,5.9,29.44,NNE,23,1.0,2.0,74,0.00,,,0.00,meteohub,2013-03-02 12:14:00,
2013-03-02 07:19:00,12.6,5.9,29.44,NNE,23,1.0,3.0,74,0.00,,,0.00,meteohub,2013-03-02 12:19:00,
2013-03-02 07:24:00,12.6,5.9,29.44,WNW,293,0.0,3.0,74,0.00,,,0.00,meteohub,2013-03-02 12:24:00,
2013-03-02 07:29:00,12.6,6.1,29.44,WNW,293,1.0,3.0,75,0.00,,,0.00,meteohub,2013-03-02 12:29:00,
2013-03-02 07:34:00,12.6,6.1,29.43,North,0,0.0,2.0,75,0.00,,,0.00,meteohub,2013-03-02 12:34:00,
2013-03-02 07:39:00,12.6,6.1,29.43,NNE,23,0.0,1.0,75,0.00,,,0.00,meteohub,2013-03-02 12:39:00,
2013-03-02 07:44:00,12.7,6.3,29.43,WNW,293,0.0,2.0,75,0.00,,,0.00,meteohub,2013-03-02 12:44:00,
2013-03-02 07:49:00,12.7,6.3,29.43,North,0,0.0,2.0,75,0.00,,,0.00,meteohub,2013-03-02 12:49:00,
2013-03-02 07:54:00,12.9,6.4,29.43,NW,315,0.0,2.0,75,0.00,,,0.00,meteohub,2013-03-02 12:54:00,
2013-03-02 07:59:00,12.9,6.4,29.43,North,0,0.0,2.0,75,0.00,,,0.00,meteohub,2013-03-02 12:59:00,
2013-03-02 08:04:00,12.9,6.4,29.43,NW,315,2.0,2.0,75,0.00,,,0.00,meteohub,2013-03-02 13:04:00,
2013-03-02 08:09:00,12.9,6.4,29.43,NNW,338,0.0,2.0,75,0.00,,,0.00,meteohub,2013-03-02 13:09:00,
2013-03-02 08:14:00,12.9,6.4,29.43,NNE,23,2.0,3.0,75,0.00,,,0.00,meteohub,2013-03-02 13:14:00,
2013-03-02 08:19:00,12.9,6.4,29.43,North,0,4.0,4.0,75,0.00,,,0.00,meteohub,2013-03-02 13:19:00,
2013-03-02 08:24:00,13.1,6.6,29.43,West,270,0.0,3.0,75,0.00,,,0.00,meteohub,2013-03-02 13:24:00,
2013-03-02 08:29:00,13.1,6.6,29.43,West,270,2.0,4.0,75,0.00,,,0.00,meteohub,2013-03-02 13:29:00,
2013-03-02 08:34:00,13.1,6.6,29.42,WSW,248,3.0,4.0,75,0.00,,,0.00,meteohub,2013-03-02 13:34:00,
2013-03-02 08:39:00,13.3,6.8,29.42,North,0,1.0,4.0,75,0.00,,,0.00,meteohub,2013-03-02 13:39:00,
2013-03-02 08:44:00,13.5,7.0,29.42,WNW,293,2.0,4.0,75,0.00,,,0.00,meteohub,2013-03-02 13:44:00,
2013-03-02 08:50:00,13.6,7.2,29.43,NW,315,3.0,4.0,75,0.00,,,0.00,meteohub,2013-03-02 13:50:00,
2013-03-02 08:55:00,13.8,7.3,29.43,NNW,338,0.0,4.0,75,0.00,,,0.00,meteohub,2013-03-02 13:55:00,
2013-03-02 09:00:00,14.0,7.5,29.43,North,0,1.0,4.0,75,0.00,,,0.00,meteohub,2013-03-02 14:00:00,
2013-03-02 09:05:00,14.2,7.7,29.43,WNW,293,0.0,4.0,75,0.00,,,0.00,meteohub,2013-03-02 14:05:00,
2013-03-02 09:10:00,14.7,7.9,29.43,WNW,293,4.0,4.0,74,0.00,,,0.00,meteohub,2013-03-02 14:10:00,
2013-03-02 09:15:00,14.7,7.9,29.43,North,0,3.0,4.0,74,0.00,,,0.00,meteohub,2013-03-02 14:15:00,
2013-03-02 09:20:00,14.7,7.9,29.43,NW,315,4.0,4.0,74,0.00,,,0.00,meteohub,2013-03-02 14:20:00,
2013-03-02 09:25:00,14.7,7.7,29.43,North,0,2.0,4.0,73,0.00,,,0.00,meteohub,2013-03-02 14:25:00,
2013-03-02 09:30:00,14.9,7.9,29.43,WNW,293,2.0,4.0,73,0.00,,,0.00,meteohub,2013-03-02 14:30:00,
2013-03-02 09:35:00,15.3,8.2,29.43,NNE,23,4.0,4.0,73,0.00,,,0.00,meteohub,2013-03-02 14:35:00,
2013-03-02 09:40:00,15.3,8.2,29.43,NNE,23,2.0,4.0,73,0.00,,,0.00,meteohub,2013-03-02 14:40:00,
2013-03-02 09:45:00,15.3,8.2,29.43,WNW,293,2.0,4.0,73,0.00,,,0.00,meteohub,2013-03-02 14:45:00,
2013-03-02 09:50:00,15.4,8.4,29.43,North,0,2.0,4.0,73,0.00,,,0.00,meteohub,2013-03-02 14:50:00,
2013-03-02 09:55:00,15.6,8.6,29.43,NW,315,5.0,5.0,73,0.00,,,0.00,meteohub,2013-03-02 14:55:00,
2013-03-02 10:00:00,15.4,8.1,29.43,WNW,293,3.0,4.0,72,0.00,,,0.00,meteohub,2013-03-02 15:00:00,
2013-03-02 10:05:00,15.8,8.6,29.43,NNE,23,3.0,5.0,73,0.00,,,0.00,meteohub,2013-03-02 15:05:00,
2013-03-02 10:10:00,16.2,9.0,29.43,NNW,338,3.0,5.0,73,0.00,,,0.00,meteohub,2013-03-02 15:10:00,
2013-03-02 10:15:00,16.5,9.3,29.43,NW,315,2.0,5.0,73,0.00,,,0.00,meteohub,2013-03-02 15:15:00,
2013-03-02 10:20:00,16.9,9.7,29.43,NW,315,2.0,5.0,73,0.00,,,0.00,meteohub,2013-03-02 15:20:00,
2013-03-02 10:25:00,17.1,9.7,29.43,NW,315,6.0,6.0,72,0.00,,,0.00,meteohub,2013-03-02 15:25:00,
2013-03-02 10:30:00,16.9,9.5,29.43,North,0,5.0,6.0,72,0.00,,,0.00,meteohub,2013-03-02 15:30:00,
2013-03-02 10:35:00,16.9,9.5,29.43,WSW,248,3.0,6.0,72,0.00,,,0.00,meteohub,2013-03-02 15:35:00,
2013-03-02 10:40:00,17.2,9.9,29.43,ENE,68,4.0,6.0,72,0.00,,,0.00,meteohub,2013-03-02 15:40:00,
2013-03-02 10:45:00,17.2,9.9,29.43,NW,315,3.0,6.0,72,0.00,,,0.00,meteohub,2013-03-02 15:45:00,
2013-03-02 10:50:00,17.4,9.9,29.43,North,0,0.0,6.0,72,0.00,,,0.00,meteohub,2013-03-02 15:50:00,
2013-03-02 10:55:00,17.8,10.2,29.43,NNE,23,2.0,6.0,72,0.00,,,0.00,meteohub,2013-03-02 15:55:00,
2013-03-02 11:00:00,18.0,10.4,29.43,North,0,5.0,6.0,72,0.00,,,0.00,meteohub,2013-03-02 16:00:00,
2013-03-02 11:05:00,18.1,10.6,29.43,WNW,293,4.0,6.0,72,0.00,,,0.00,meteohub,2013-03-02 16:05:00,
2013-03-02 11:10:00,18.3,10.8,29.43,NNE,23,4.0,5.0,72,0.00,,,0.00,meteohub,2013-03-02 16:10:00,
2013-03-02 11:15:00,18.5,10.9,29.43,WSW,248,3.0,4.0,72,0.00,,,0.00,meteohub,2013-03-02 16:15:00,
2013-03-02 11:20:00,19.0,11.5,29.43,North,0,3.0,4.0,72,0.00,,,0.00,meteohub,2013-03-02 16:20:00,
2013-03-02 11:25:00,19.4,11.8,29.43,NNE,23,4.0,4.0,72,0.00,,,0.00,meteohub,2013-03-02 16:25:00,
2013-03-02 11:30:00,19.4,11.8,29.39,WSW,248,5.0,5.0,72,0.00,,,0.00,meteohub,2013-03-02 16:30:00,
2013-03-02 11:35:00,19.6,12.0,29.39,NW,315,4.0,5.0,72,0.00,,,0.00,meteohub,2013-03-02 16:35:00,
2013-03-02 11:40:00,19.6,11.7,29.39,NW,315,2.0,5.0,71,0.00,,,0.00,meteohub,2013-03-02 16:40:00,
2013-03-02 11:45:00,19.6,12.0,29.39,WNW,293,2.0,5.0,72,0.00,,,0.00,meteohub,2013-03-02 16:45:00,
2013-03-02 11:50:00,19.6,12.0,29.37,NW,315,2.0,5.0,72,0.00,,,0.00,meteohub,2013-03-02 16:50:00,
2013-03-02 11:55:00,19.8,12.2,29.37,West,270,2.0,5.0,72,0.00,,,0.00,meteohub,2013-03-02 16:55:00,
2013-03-02 12:00:00,20.5,12.9,29.37,East,90,3.0,5.0,72,0.00,,,0.00,meteohub,2013-03-02 17:00:00,
2013-03-02 12:05:00,20.5,12.6,29.37,NE,45,4.0,4.0,71,0.00,,,0.00,meteohub,2013-03-02 17:05:00,
2013-03-02 12:10:00,20.7,12.7,29.38,NE,45,4.0,4.0,71,0.00,,,0.00,meteohub,2013-03-02 17:10:00,
2013-03-02 12:15:00,20.8,12.6,29.38,NNE,23,5.0,5.0,70,0.00,,,0.00,meteohub,2013-03-02 17:15:00,
2013-03-02 12:20:00,21.0,12.7,29.38,NE,45,3.0,7.0,70,0.00,,,0.00,meteohub,2013-03-02 17:20:00,
2013-03-02 12:25:00,21.2,12.9,29.38,North,0,4.0,7.0,70,0.00,,,0.00,meteohub,2013-03-02 17:25:00,
2013-03-02 12:30:00,21.4,12.7,29.37,North,0,6.0,7.0,69,0.00,,,0.00,meteohub,2013-03-02 17:30:00,
2013-03-02 12:35:00,21.6,12.6,29.37,WSW,248,7.0,7.0,68,0.00,,,0.00,meteohub,2013-03-02 17:35:00,
2013-03-02 12:40:00,21.7,12.7,29.37,West,270,4.0,7.0,68,0.00,,,0.00,meteohub,2013-03-02 17:40:00,
2013-03-02 12:45:00,21.9,12.9,29.37,WNW,293,8.0,8.0,68,0.00,,,0.00,meteohub,2013-03-02 17:45:00,
2013-03-02 12:50:00,21.9,12.9,29.36,North,0,4.0,8.0,68,0.00,,,0.00,meteohub,2013-03-02 17:50:00,
2013-03-02 12:55:00,21.9,12.9,29.36,NNE,23,4.0,8.0,68,0.00,,,0.00,meteohub,2013-03-02 17:55:00,
2013-03-02 13:01:00,21.9,12.9,29.36,North,0,4.0,8.0,68,0.00,,,0.00,meteohub,2013-03-02 18:01:00,
2013-03-02 13:06:00,22.1,13.1,29.36,NNW,338,4.0,8.0,68,0.00,,,0.00,meteohub,2013-03-02 18:06:00,
2013-03-02 13:11:00,22.6,13.6,29.35,West,270,2.0,8.0,68,0.00,,,0.00,meteohub,2013-03-02 18:11:00,
2013-03-02 13:16:00,23.2,14.2,29.35,NNW,338,9.0,9.0,68,0.00,,,0.00,meteohub,2013-03-02 18:16:00,
2013-03-02 13:21:00,23.0,14.0,29.35,NNW,338,6.0,9.0,68,0.00,,,0.00,meteohub,2013-03-02 18:21:00,
2013-03-02 13:26:00,23.0,14.0,29.35,WSW,248,4.0,9.0,68,0.00,,,0.00,meteohub,2013-03-02 18:26:00,
2013-03-02 13:31:00,23.4,14.4,29.39,North,0,4.0,9.0,68,0.00,,,0.00,meteohub,2013-03-02 18:31:00,
2013-03-02 13:36:00,23.0,13.6,29.39,WSW,248,3.0,6.0,67,0.00,,,0.00,meteohub,2013-03-02 18:36:00,
2013-03-02 13:41:00,23.2,13.8,29.39,North,0,3.0,6.0,67,0.00,,,0.00,meteohub,2013-03-02 18:41:00,
2013-03-02 13:46:00,23.4,14.0,29.39,West,270,4.0,7.0,67,0.00,,,0.00,meteohub,2013-03-02 18:46:00,
2013-03-02 13:51:00,23.4,14.0,29.39,North,0,6.0,8.0,67,0.00,,,0.00,meteohub,2013-03-02 18:51:00,
2013-03-02 13:56:00,23.4,14.0,29.39,NW,315,7.0,9.0,67,0.00,,,0.00,meteohub,2013-03-02 18:56:00,
2013-03-02 14:01:00,23.4,14.0,29.39,NW,315,4.0,9.0,67,0.00,,,0.00,meteohub,2013-03-02 19:01:00,
2013-03-02 14:06:00,23.7,14.4,29.39,SW,225,6.0,9.0,67,0.00,,,0.00,meteohub,2013-03-02 19:06:00,
2013-03-02 14:11:00,23.9,14.2,29.37,NNE,23,6.0,8.0,66,0.00,,,0.00,meteohub,2013-03-02 19:11:00,
2013-03-02 14:16:00,23.9,14.2,29.37,SW,225,4.0,7.0,66,0.00,,,0.00,meteohub,2013-03-02 19:16:00,
2013-03-02 14:21:00,24.1,14.4,29.37,SW,225,4.0,9.0,66,0.00,,,0.00,meteohub,2013-03-02 19:21:00,
2013-03-02 14:26:00,24.1,14.0,29.37,NNE,23,7.0,10.0,65,0.00,,,0.00,meteohub,2013-03-02 19:26:00,
2013-03-02 14:31:00,24.1,14.0,29.37,NW,315,5.0,10.0,65,0.00,,,0.00,meteohub,2013-03-02 19:31:00,
2013-03-02 14:36:00,24.3,14.2,29.37,SE,135,2.0,9.0,65,0.00,,,0.00,meteohub,2013-03-02 19:36:00,
2013-03-02 14:41:00,24.8,15.1,29.37,NW,315,6.0,9.0,66,0.00,,,0.00,meteohub,2013-03-02 19:41:00,
2013-03-02 14:46:00,25.0,14.9,29.37,WNW,293,3.0,8.0,65,0.00,,,0.00,meteohub,2013-03-02 19:46:00,
2013-03-02 14:51:00,25.2,15.1,29.36,South,180,5.0,6.0,65,0.00,,,0.00,meteohub,2013-03-02 19:51:00,
2013-03-02 14:56:00,25.3,14.9,29.36,North,0,6.0,7.0,64,0.00,,,0.00,meteohub,2013-03-02 19:56:00,
2013-03-02 15:01:00,25.3,14.9,29.36,North,0,4.0,11.0,64,0.00,,,0.00,meteohub,2013-03-02 20:01:00,
2013-03-02 15:06:00,25.0,14.2,29.36,WSW,248,5.0,11.0,63,0.00,,,0.00,meteohub,2013-03-02 20:06:00,
2013-03-02 15:11:00,25.0,14.2,29.36,WNW,293,2.0,6.0,63,0.00,,,0.00,meteohub,2013-03-02 20:11:00,
2013-03-02 15:16:00,25.2,14.0,29.36,NW,315,6.0,6.0,62,0.00,,,0.00,meteohub,2013-03-02 20:16:00,
2013-03-02 15:21:00,25.5,14.4,29.36,NW,315,7.0,7.0,62,0.00,,,0.00,meteohub,2013-03-02 20:21:00,
2013-03-02 15:27:00,25.3,14.5,29.36,WSW,248,8.0,8.0,63,0.00,,,0.00,meteohub,2013-03-02 20:27:00,
2013-03-02 15:32:00,25.0,13.8,29.37,NE,45,2.0,8.0,62,0.00,,,0.00,meteohub,2013-03-02 20:32:00,
2013-03-02 15:37:00,25.3,14.5,29.37,North,0,4.0,9.0,63,0.00,,,0.00,meteohub,2013-03-02 20:37:00,
2013-03-02 15:42:00,25.2,14.4,29.37,North,0,4.0,9.0,63,0.00,,,0.00,meteohub,2013-03-02 20:42:00,
2013-03-02 15:47:00,25.2,14.7,29.37,North,0,6.0,8.0,64,0.00,,,0.00,meteohub,2013-03-02 20:47:00,
2013-03-02 15:52:00,25.5,15.1,29.38,NNE,23,4.0,8.0,64,0.00,,,0.00,meteohub,2013-03-02 20:52:00,
2013-03-02 15:57:00,25.5,15.1,29.38,East,90,4.0,8.0,64,0.00,,,0.00,meteohub,2013-03-02 20:57:00,
2013-03-02 16:02:00,25.5,15.1,29.38,WNW,293,5.0,7.0,64,0.00,,,0.00,meteohub,2013-03-02 21:02:00,
2013-03-02 16:07:00,26.1,15.6,29.38,North,0,5.0,7.0,64,0.00,,,0.00,meteohub,2013-03-02 21:07:00,
2013-03-02 16:12:00,26.1,15.6,29.38,North,0,6.0,9.0,64,0.00,,,0.00,meteohub,2013-03-02 21:12:00,
2013-03-02 16:17:00,26.1,15.6,29.38,WSW,248,8.0,9.0,64,0.00,,,0.00,meteohub,2013-03-02 21:17:00,
2013-03-02 16:22:00,26.2,15.8,29.38,WSW,248,7.0,9.0,64,0.00,,,0.00,meteohub,2013-03-02 21:22:00,
2013-03-02 16:27:00,26.2,15.1,29.38,NNE,23,3.0,8.0,62,0.00,,,0.00,meteohub,2013-03-02 21:27:00,
2013-03-02 16:32:00,26.6,15.6,29.38,NNW,338,5.0,8.0,63,0.00,,,0.00,meteohub,2013-03-02 21:32:00,
2013-03-02 16:37:00,26.8,15.8,29.38,North,0,2.0,8.0,63,0.00,,,0.00,meteohub,2013-03-02 21:37:00,
2013-03-02 16:42:00,26.6,15.3,29.38,NNE,23,2.0,8.0,62,0.00,,,0.00,meteohub,2013-03-02 21:42:00,
2013-03-02 16:47:00,26.2,15.1,29.38,NNE,23,3.0,5.0,62,0.00,,,0.00,meteohub,2013-03-02 21:47:00,
2013-03-02 16:52:00,25.9,15.1,29.38,NE,45,2.0,6.0,63,0.00,,,0.00,meteohub,2013-03-02 21:52:00,
2013-03-02 16:57:00,25.5,15.1,29.38,WNW,293,3.0,6.0,64,0.00,,,0.00,meteohub,2013-03-02 21:57:00,
2013-03-02 17:02:00,25.5,15.1,29.38,SE,135,5.0,6.0,64,0.00,,,0.00,meteohub,2013-03-02 22:02:00,
2013-03-02 17:07:00,25.5,15.1,29.38,North,0,2.0,8.0,64,0.00,,,0.00,meteohub,2013-03-02 22:07:00,
2013-03-02 17:12:00,25.3,15.3,29.38,ESE,113,3.0,8.0,65,0.00,,,0.00,meteohub,2013-03-02 22:12:00,
2013-03-02 17:17:00,25.0,14.9,29.38,West,270,3.0,7.0,65,0.00,,,0.00,meteohub,2013-03-02 22:17:00,
2013-03-02 17:22:00,24.4,14.7,29.38,North,0,4.0,5.0,66,0.00,,,0.00,meteohub,2013-03-02 22:22:00,
2013-03-02 17:27:00,24.3,14.9,29.38,NNE,23,3.0,8.0,67,0.00,,,0.00,meteohub,2013-03-02 22:27:00,
2013-03-02 17:32:00,23.9,14.5,29.38,WSW,248,3.0,8.0,67,0.00,,,0.00,meteohub,2013-03-02 22:32:00,
2013-03-02 17:37:00,23.7,14.7,29.38,NW,315,4.0,5.0,68,0.00,,,0.00,meteohub,2013-03-02 22:37:00,
2013-03-02 17:42:00,23.5,14.5,29.38,WNW,293,4.0,8.0,68,0.00,,,0.00,meteohub,2013-03-02 22:42:00,
2013-03-02 17:47:00,23.4,14.7,29.38,WNW,293,8.0,8.0,69,0.00,,,0.00,meteohub,2013-03-02 22:47:00,
2013-03-02 17:52:00,23.4,14.7,29.38,NNW,338,6.0,8.0,69,0.00,,,0.00,meteohub,2013-03-02 22:52:00,
2013-03-02 17:57:00,23.2,14.5,29.38,West,270,4.0,8.0,69,0.00,,,0.00,meteohub,2013-03-02 22:57:00,
2013-03-02 18:02:00,23.0,14.4,29.38,North,0,3.0,8.0,69,0.00,,,0.00,meteohub,2013-03-02 23:02:00,
2013-03-02 18:07:00,23.0,14.7,29.38,SSE,158,4.0,6.0,70,0.00,,,0.00,meteohub,2013-03-02 23:07:00,
2013-03-02 18:12:00,22.6,14.4,29.38,North,0,8.0,8.0,70,0.00,,,0.00,meteohub,2013-03-02 23:12:00,
2013-03-02 18:17:00,22.6,14.4,29.38,WNW,293,4.0,8.0,70,0.00,,,0.00,meteohub,2013-03-02 23:17:00,
2013-03-02 18:22:00,22.1,14.2,29.38,WSW,248,4.0,8.0,71,0.00,,,0.00,meteohub,2013-03-02 23:22:00,
2013-03-02 18:27:00,22.1,14.2,29.38,North,0,2.0,8.0,71,0.00,,,0.00,meteohub,2013-03-02 23:27:00,
2013-03-02 18:32:00,21.6,13.6,29.39,NE,45,0.0,5.0,71,0.00,,,0.00,meteohub,2013-03-02 23:32:00,
2013-03-02 18:37:00,21.2,13.3,29.39,North,0,4.0,5.0,71,0.00,,,0.00,meteohub,2013-03-02 23:37:00,
2013-03-02 18:42:00,21.2,13.6,29.39,North,0,0.0,7.0,72,0.00,,,0.00,meteohub,2013-03-02 23:42:00,
2013-03-02 18:47:00,20.8,13.3,29.39,North,0,0.0,7.0,72,0.00,,,0.00,meteohub,2013-03-02 23:47:00,
2013-03-02 18:52:00,20.5,12.9,29.38,NNW,338,0.0,7.0,72,0.00,,,0.00,meteohub,2013-03-02 23:52:00,
2013-03-02 18:57:00,20.3,12.7,29.38,NNW,338,3.0,5.0,72,0.00,,,0.00,meteohub,2013-03-02 23:57:00,
2013-03-02 19:02:00,19.9,12.4,29.38,NNE,23,0.0,3.0,72,0.00,,,0.00,meteohub,2013-03-03 00:02:00,
2013-03-02 19:07:00,19.8,12.6,29.38,NNW,338,0.0,3.0,73,0.00,,,0.00,meteohub,2013-03-03 00:07:00,
2013-03-02 19:12:00,19.6,12.4,29.38,NE,45,0.0,3.0,73,0.00,,,0.00,meteohub,2013-03-03 00:12:00,
2013-03-02 19:17:00,19.6,12.4,29.38,NNE,23,0.0,4.0,73,0.00,,,0.00,meteohub,2013-03-03 00:17:00,
2013-03-02 19:22:00,19.2,12.0,29.38,North,0,1.0,4.0,73,0.00,,,0.00,meteohub,2013-03-03 00:22:00,
2013-03-02 19:27:00,19.0,12.2,29.38,ESE,113,3.0,3.0,74,0.00,,,0.00,meteohub,2013-03-03 00:27:00,
2013-03-02 19:32:00,19.0,12.2,29.38,WSW,248,0.0,4.0,74,0.00,,,0.00,meteohub,2013-03-03 00:32:00,
2013-03-02 19:37:00,18.9,12.2,29.38,WNW,293,1.0,4.0,75,0.00,,,0.00,meteohub,2013-03-03 00:37:00,
2013-03-02 19:42:00,18.7,12.0,29.38,North,0,3.0,4.0,75,0.00,,,0.00,meteohub,2013-03-03 00:42:00,
2013-03-02 19:47:00,18.5,11.8,29.38,WSW,248,3.0,4.0,75,0.00,,,0.00,meteohub,2013-03-03 00:47:00,
2013-03-02 19:52:00,18.5,11.8,29.38,NW,315,5.0,5.0,75,0.00,,,0.00,meteohub,2013-03-03 00:52:00,
2013-03-02 19:57:00,18.3,12.0,29.38,NW,315,3.0,5.0,76,0.00,,,0.00,meteohub,2013-03-03 00:57:00,
2013-03-02 20:02:00,18.3,12.0,29.38,North,0,2.0,6.0,76,0.00,,,0.00,meteohub,2013-03-03 01:02:00,
2013-03-02 20:07:00,18.1,11.8,29.38,NW,315,3.0,6.0,76,0.00,,,0.00,meteohub,2013-03-03 01:07:00,
2013-03-02 20:12:00,18.0,11.7,29.38,NW,315,5.0,5.0,76,0.00,,,0.00,meteohub,2013-03-03 01:12:00,
2013-03-02 20:17:00,17.8,11.5,29.38,SW,225,0.0,5.0,76,0.00,,,0.00,meteohub,2013-03-03 01:17:00,
2013-03-02 20:22:00,17.6,11.3,29.38,North,0,3.0,5.0,76,0.00,,,0.00,meteohub,2013-03-03 01:22:00,
2013-03-02 20:27:00,17.4,11.1,29.38,West,270,0.0,5.0,76,0.00,,,0.00,meteohub,2013-03-03 01:27:00,
2013-03-02 20:32:00,17.2,10.9,29.38,WNW,293,2.0,4.0,76,0.00,,,0.00,meteohub,2013-03-03 01:32:00,
2013-03-02 20:37:00,17.2,10.9,29.38,NNW,338,0.0,3.0,76,0.00,,,0.00,meteohub,2013-03-03 01:37:00,
2013-03-02 20:42:00,17.1,10.8,29.38,WNW,293,2.0,3.0,76,0.00,,,0.00,meteohub,2013-03-03 01:42:00,
2013-03-02 20:47:00,16.9,10.6,29.38,North,0,2.0,3.0,76,0.00,,,0.00,meteohub,2013-03-03 01:47:00,
2013-03-02 20:52:00,16.7,10.4,29.39,North,0,0.0,3.0,76,0.00,,,0.00,meteohub,2013-03-03 01:52:00,
2013-03-02 20:57:00,16.5,10.2,29.39,NE,45,0.0,3.0,76,0.00,,,0.00,meteohub,2013-03-03 01:57:00,
2013-03-02 21:02:00,16.2,9.9,29.39,WNW,293,0.0,3.0,76,0.00,,,0.00,meteohub,2013-03-03 02:02:00,
2013-03-02 21:07:00,16.2,10.2,29.39,NW,315,2.0,3.0,77,0.00,,,0.00,meteohub,2013-03-03 02:07:00,
2013-03-02 21:12:00,16.2,10.2,29.39,North,0,3.0,3.0,77,0.00,,,0.00,meteohub,2013-03-03 02:12:00,
2013-03-02 21:17:00,16.2,10.2,29.39,WNW,293,4.0,4.0,77,0.00,,,0.00,meteohub,2013-03-03 02:17:00,
2013-03-02 21:22:00,16.2,10.2,29.39,North,0,2.0,4.0,77,0.00,,,0.00,meteohub,2013-03-03 02:22:00,
2013-03-02 21:27:00,16.0,9.7,29.39,NW,315,3.0,4.0,76,0.00,,,0.00,meteohub,2013-03-03 02:27:00,
2013-03-02 21:32:00,16.0,9.7,29.39,WNW,293,1.0,5.0,76,0.00,,,0.00,meteohub,2013-03-03 02:32:00,
2013-03-02 21:37:00,16.0,9.7,29.39,NW,315,2.0,5.0,76,0.00,,,0.00,meteohub,2013-03-03 02:37:00,
2013-03-02 21:42:00,15.8,9.5,29.39,North,0,0.0,5.0,76,0.00,,,0.00,meteohub,2013-03-03 02:42:00,
2013-03-02 21:47:00,15.6,9.5,29.39,NNW,338,2.0,2.0,76,0.00,,,0.00,meteohub,2013-03-03 02:47:00,
2013-03-02 21:52:00,15.6,9.5,29.38,NW,315,0.0,2.0,76,0.00,,,0.00,meteohub,2013-03-03 02:52:00,
2013-03-02 21:57:00,15.4,9.3,29.38,North,0,2.0,2.0,76,0.00,,,0.00,meteohub,2013-03-03 02:57:00,
2013-03-02 22:02:00,15.1,8.6,29.38,South,180,0.0,3.0,75,0.00,,,0.00,meteohub,2013-03-03 03:02:00,
2013-03-02 22:07:00,14.9,8.4,29.38,WNW,293,1.0,3.0,75,0.00,,,0.00,meteohub,2013-03-03 03:07:00,
2013-03-02 22:12:00,14.9,8.8,29.37,North,0,0.0,2.0,76,0.00,,,0.00,meteohub,2013-03-03 03:12:00,
2013-03-02 22:17:00,14.7,8.6,29.37,North,0,2.0,2.0,76,0.00,,,0.00,meteohub,2013-03-03 03:17:00,
2013-03-02 22:22:00,14.5,8.4,29.37,NNE,23,0.0,2.0,76,0.00,,,0.00,meteohub,2013-03-03 03:22:00,
2013-03-02 22:27:00,14.2,8.1,29.37,NNE,23,2.0,2.0,76,0.00,,,0.00,meteohub,2013-03-03 03:27:00,
2013-03-02 22:32:00,14.2,8.1,29.36,NNE,23,3.0,3.0,76,0.00,,,0.00,meteohub,2013-03-03 03:32:00,
2013-03-02 22:37:00,14.4,8.4,29.36,NE,45,2.0,3.0,77,0.00,,,0.00,meteohub,2013-03-03 03:37:00,
2013-03-02 22:42:00,14.2,8.1,29.36,NNE,23,2.0,3.0,76,0.00,,,0.00,meteohub,2013-03-03 03:42:00,
2013-03-02 22:47:00,14.2,8.2,29.36,NNE,23,2.0,3.0,77,0.00,,,0.00,meteohub,2013-03-03 03:47:00,
2013-03-02 22:52:00,14.2,8.2,29.35,NE,45,0.0,2.0,77,0.00,,,0.00,meteohub,2013-03-03 03:52:00,
2013-03-02 22:57:00,14.0,7.9,29.35,NE,45,2.0,3.0,76,0.00,,,0.00,meteohub,2013-03-03 03:57:00,
2013-03-02 23:02:00,14.0,7.9,29.35,NNE,23,2.0,3.0,76,0.00,,,0.00,meteohub,2013-03-03 04:02:00,
2013-03-02 23:07:00,14.0,7.9,29.35,North,0,2.0,3.0,76,0.00,,,0.00,meteohub,2013-03-03 04:07:00,
2013-03-02 23:12:00,13.8,7.7,29.35,NNE,23,3.0,3.0,76,0.00,,,0.00,meteohub,2013-03-03 04:12:00,
2013-03-02 23:17:00,14.0,8.1,29.35,NNE,23,2.0,3.0,77,0.00,,,0.00,meteohub,2013-03-03 04:17:00,
2013-03-02 23:22:00,14.4,8.4,29.35,NNE,23,3.0,3.0,77,0.00,,,0.00,meteohub,2013-03-03 04:22:00,
2013-03-02 23:27:00,14.7,8.8,29.35,North,0,2.0,3.0,77,0.00,,,0.00,meteohub,2013-03-03 04:27:00,
2013-03-02 23:32:00,14.9,9.0,29.34,East,90,3.0,4.0,77,0.00,,,0.00,meteohub,2013-03-03 04:32:00,
2013-03-02 23:37:00,15.3,9.3,29.34,NNE,23,3.0,4.0,77,0.00,,,0.00,meteohub,2013-03-03 04:37:00,
2013-03-02 23:42:00,15.6,9.7,29.34,North,0,3.0,3.0,77,0.00,,,0.00,meteohub,2013-03-03 04:42:00,
2013-03-02 23:47:00,16.0,10.0,29.34,NW,315,6.0,6.0,77,0.00,,,0.00,meteohub,2013-03-03 04:47:00,
2013-03-02 23:52:00,16.3,10.4,29.34,West,270,3.0,3.0,77,0.00,,,0.00,meteohub,2013-03-03 04:52:00,
2013-03-02 23:57:00,16.7,10.8,29.34,NNW,338,2.0,6.0,77,0.00,,,0.00,meteohub,2013-03-03 04:57:00,